星链-30368 (STARLINK-30368 )

导读

STARLINK-30368是美国SpaceX公司星链星座中的一员,于2023年9月1日发射升空,属于星链低轨互联网卫星星座的组网卫星。星链项目旨在通过低地球轨道卫星群为全球提供高速低延迟宽带互联网接入,该卫星运行在约550公里的近地轨道,承担着全球网络覆盖与数据通信传输任务,助力星链实现偏远地区网络覆盖、特殊场景通信支撑等应用,是SpaceX构建全球卫星互联网的重要组成部分。

基本信息
目录编号:
57752
目录名称:
STARLINK-30368
国际标识:
2023-131W
轨道中心:
EARTH
卫星名称:
星链-30368
卫星全名:
星链-30368 (STARLINK-30368 )
卫星状态:
在轨 (已飞行1106 天)
发射日期:
2023-09-01 UTC
国别 :
美国 (US)
星等 :
--
该卫星已列入 空间交会检测服务 Space Conjunction Data Service (SCDS) ,当前飞行风险评估等级: 无高风险
轨道信息
数据来源 国际轨道数据 AOE轨道数据
星历时间 2026-09-11T14:10:39+0800
8小时前
查看轨道信息
2026-09-10T23:00:00+0800
23小时前
查看轨道信息
半长轴 6861.193km 6861.22km
偏心率 0.000123 0.0001069
轨道倾角 43.004° 43.001°
近地点辐角 265.443° 248.426°
升交点赤经 204.693° 208.268°
平近点角 94.628° 229.805°
近地点 482.212km 482.349km
远地点 483.9km 483.817km
周期 94.267分钟 94.267分钟
每日圈数 15.275779 15.275688
详细信息
固有亮度:
5
最大亮度:
0.3
卫星平台:
Starlink v2.0 mini
覆盖范围:
全球
运营商:
太空探索技术公司
运营商所在国:
美国
制造商(研发单位):
太空探索技术公司
制造商所在国:
美国
使用方式:
暂无
卫星简介
星链(Starlink)计划是由太空探索技术公司(SpaceX)提出的一个巨型低轨卫星互联网星座项目,计划在2019年至2024年间在太空搭建由约1.2万颗卫星组成的“星链”网络,其中1584颗将部署在地球上空550千米处的近地轨道,并从2020年开始工作。该卫星仍在工作。
2D轨道图
3D轨道图
轨道高度分析图
轨道倾角分析图
轨道综合分析图
查看轨道综合分析图
交会数据列表
事件ID 空间交会对象 最接近时刻(TCA) 交会距离 交会风险概率(CRP) 交会风险指数(CRI) 操作
CDM_260912-175605-775206-228521
2026-09-12T
17:56:58+0000
1.312 km
极远距离
4.228263E-6 低风险 0.48
CDM_260912-215705-775206-261122
BALKAN-1 (62611)
2026-09-12T
21:57:14+0000
1.993 km
极远距离
2.742206E-6 低风险 0.44
CDM_260913-010005-775206-228521
2026-09-13T
01:00:39+0000
1.671 km
极远距离
2.005698E-6 低风险 0.41
CDM_260912-193105-775206-228521
2026-09-12T
19:31:07+0000
1.675 km
极远距离
1.992697E-6 低风险 0.41
CDM_260912-232605-775206-228521
2026-09-12T
23:26:30+0000
1.762 km
极远距离
1.732657E-6 低风险 0.4
CDM_260912-182305-696405-775223
AFR-1 (56964)
2026-09-12T
18:23:31+0000
2.903 km
极远距离
1.363053E-6 低风险 0.38
与全量物体交会距离演化趋势
与全量物体交会风险概率演化趋势